Change the Weather History Date:

Sunday, September 14, 2014

  Actual Average Record
Temperature  
Mean Temperature 58 °F 66 °F  
Max Temperature 69 °F 77 °F 86 °F (1991)
Min Temperature 47 °F 55 °F 40 °F (2011)
Degree Days  
Heating Degree Days 7 2  
Month to date heating degree days 61 19  
Since 1 July heating degree days 68 27  
Cooling Degree Days 0 3  
Month to date cooling degree days 49 64  
Year to date cooling degree days 866 902  
Growing Degree Days 8 (Base 50)    
Moisture  
Dew Point 47 °F    
Average Humidity 67    
Maximum Humidity 86    
Minimum Humidity 47    
Precipitation  
Precipitation 0.00 in 0.10 in 2.12 in (1970)
Month to date precipitation 4.48 1.93  
Sea Level Pressure  
Sea Level Pressure 30.21 in    
Wind  
Wind Speed 6 mph (SSE)    
Max Wind Speed 12 mph    
Max Gust Speed 16 mph    
Visibility 10 miles    
Events      
T = Trace of Precipitation, MM = Missing Value Source: NWS Daily Summary

Daily Weather History Graph

Daily Weather History Graph

Search for Another Location

Airport or City:

Trip Planner

Search our weather history database for the weather conditions in past years. The results will help you decide how hot, cold, wet, or windy it might be!

Date:

Astronomy

Sep. 14, 2014 Rise Set
Actual Time 6:55 AM CDT 7:26 PM CDT
Civil Twilight 6:27 AM CDT 7:53 PM CDT
Nautical Twilight 5:55 AM CDT 8:25 PM CDT
Astronomical Twilight 5:22 AM CDT 8:59 PM CDT
Moon 11:17 PM CDT (9/14) 1:03 PM CDT (9/14)
Length of Visible Light 13h 25m
Length of Day
12h 30m
Waning Gibbous, 64% of the Moon is Illuminated
Sep 14
Waning Gibbous
Sep 15
Last Quarter
Sep 24
New
Oct 1
First Quarter
Oct 8
Full

Hourly Weather History & Observations

Time (CDT) Temp. Dew Point Humidity Pressure Visibility Wind Dir Wind Speed Gust Speed Precip Events Conditions
12:53 AM 48.0 °F 41.0 °F 77% 30.28 in 10.0 mi South 5.8 mph - N/A   Clear
1:53 AM 48.0 °F 41.0 °F 77% 30.28 in 10.0 mi SSE 6.9 mph - N/A   Clear
2:53 AM 46.9 °F 43.0 °F 86% 30.27 in 10.0 mi South 5.8 mph - N/A   Mostly Cloudy
3:53 AM 48.0 °F 43.0 °F 83% 30.26 in 10.0 mi South 5.8 mph - N/A   Overcast
4:53 AM 48.0 °F 43.0 °F 83% 30.26 in 10.0 mi South 6.9 mph - N/A   Overcast
5:53 AM 48.9 °F 44.1 °F 83% 30.26 in 10.0 mi South 4.6 mph - N/A   Overcast
6:53 AM 48.9 °F 45.0 °F 86% 30.27 in 10.0 mi South 5.8 mph - N/A   Overcast
7:53 AM 50.0 °F 46.0 °F 86% 30.27 in 10.0 mi South 5.8 mph - N/A   Overcast
8:53 AM 53.1 °F 46.0 °F 77% 30.27 in 10.0 mi South 6.9 mph - N/A   Overcast
9:53 AM 57.0 °F 46.9 °F 69% 30.27 in 10.0 mi South 6.9 mph - N/A   Overcast
10:53 AM 61.0 °F 46.9 °F 60% 30.25 in 10.0 mi South 8.1 mph - N/A   Clear
11:53 AM 64.0 °F 48.0 °F 56% 30.24 in 10.0 mi SW 6.9 mph - N/A   Clear
12:53 PM 66.0 °F 46.9 °F 50% 30.22 in 10.0 mi South 8.1 mph - N/A   Clear
1:53 PM 66.9 °F 48.0 °F 51% 30.21 in 10.0 mi Variable 6.9 mph - N/A   Clear
2:53 PM 66.9 °F 48.9 °F 52% 30.18 in 10.0 mi SSE 3.5 mph - N/A   Clear
3:53 PM 69.1 °F 48.9 °F 49% 30.15 in 10.0 mi South 9.2 mph - N/A   Clear
4:53 PM 68.0 °F 48.9 °F 50% 30.13 in 10.0 mi South 8.1 mph - N/A   Clear
5:53 PM 66.9 °F 48.9 °F 52% 30.12 in 10.0 mi South 9.2 mph - N/A   Clear
6:53 PM 64.0 °F 50.0 °F 60% 30.12 in 10.0 mi SSE 4.6 mph - N/A   Clear
7:53 PM 63.0 °F 48.9 °F 60% 30.12 in 10.0 mi SE 3.5 mph - N/A   Clear
8:53 PM 61.0 °F 50.0 °F 67% 30.12 in 10.0 mi ESE 3.5 mph - N/A   Overcast
9:53 PM 61.0 °F 51.1 °F 70% 30.13 in 10.0 mi ESE 3.5 mph - N/A   Overcast
10:53 PM 60.1 °F 52.0 °F 75% 30.12 in 10.0 mi East 5.8 mph - N/A   Overcast
11:53 PM 60.1 °F 53.1 °F 78% 30.12 in 10.0 mi ESE 3.5 mph - N/A   Overcast